Time,TemperatureF,DewpointF,PressureIn,WindDirection,WindDirectionDegrees,WindSpeedMPH,WindSpeedGustMPH,Humidity,HourlyPrecipIn,Conditions,Clouds,dailyrainin,SoftwareType,DateUTC
2013-07-15 00:08:00,78.0,74.0,30.23,West,259,1.0,1.0,86,0.00,,,0.00,weatherlink.com 1.10,2013-07-15 04:08:00,
2013-07-15 00:24:00,78.4,74.0,30.23,SW,236,2.0,2.0,85,0.00,,,0.00,weatherlink.com 1.10,2013-07-15 04:24:00,
2013-07-15 00:38:00,78.6,74.0,30.23,SSW,208,1.0,3.0,85,0.00,,,0.00,weatherlink.com 1.10,2013-07-15 04:38:00,
2013-07-15 00:53:00,78.6,73.0,30.23,SW,225,0.0,4.0,84,0.00,,,0.00,weatherlink.com 1.10,2013-07-15 04:53:00,
2013-07-15 01:08:00,78.4,73.0,30.23,West,274,0.0,2.0,84,0.00,,,0.00,weatherlink.com 1.10,2013-07-15 05:08:00,
2013-07-15 01:23:00,78.2,73.0,30.23,West,262,1.0,3.0,85,0.00,,,0.00,weatherlink.com 1.10,2013-07-15 05:23:00,
2013-07-15 01:38:00,78.2,73.0,30.23,West,260,0.0,2.0,85,0.00,,,0.00,weatherlink.com 1.10,2013-07-15 05:38:00,
2013-07-15 01:53:00,78.0,73.0,30.22,SW,218,0.0,3.0,85,0.00,,,0.00,weatherlink.com 1.10,2013-07-15 05:53:00,
2013-07-15 02:08:00,77.8,73.0,30.22,South,183,1.0,2.0,86,0.00,,,0.00,weatherlink.com 1.10,2013-07-15 06:08:00,
2013-07-15 02:23:00,77.6,73.0,30.22,SW,232,0.0,3.0,86,0.00,,,0.00,weatherlink.com 1.10,2013-07-15 06:23:00,
2013-07-15 02:38:00,78.1,73.0,30.22,West,273,1.0,3.0,84,0.00,,,0.00,weatherlink.com 1.10,2013-07-15 06:38:00,
2013-07-15 02:53:00,78.1,72.0,30.22,SW,232,2.0,4.0,82,0.00,,,0.00,weatherlink.com 1.10,2013-07-15 06:53:00,
2013-07-15 03:08:00,79.0,71.0,30.21,SW,228,1.0,5.0,77,0.00,,,0.00,weatherlink.com 1.10,2013-07-15 07:08:00,
2013-07-15 03:23:00,79.0,71.0,30.22,West,262,0.0,4.0,77,0.00,,,0.00,weatherlink.com 1.10,2013-07-15 07:23:00,
2013-07-15 03:38:00,78.5,71.0,30.22,West,276,0.0,3.0,78,0.00,,,0.00,weatherlink.com 1.10,2013-07-15 07:38:00,
2013-07-15 03:53:00,78.3,71.0,30.22,West,278,0.0,2.0,79,0.00,,,0.00,weatherlink.com 1.10,2013-07-15 07:53:00,
2013-07-15 04:08:00,78.1,71.0,30.22,SW,232,0.0,3.0,79,0.00,,,0.00,weatherlink.com 1.10,2013-07-15 08:08:00,
2013-07-15 04:23:00,77.7,71.0,30.22,WSW,249,0.0,2.0,80,0.00,,,0.00,weatherlink.com 1.10,2013-07-15 08:23:00,
2013-07-15 04:38:00,77.4,71.0,30.22,SW,214,0.0,2.0,81,0.00,,,0.00,weatherlink.com 1.10,2013-07-15 08:38:00,
2013-07-15 04:53:00,77.3,71.0,30.22,WSW,255,0.0,1.0,82,0.00,,,0.00,weatherlink.com 1.10,2013-07-15 08:53:00,
2013-07-15 05:08:00,77.3,71.0,30.22,WSW,239,0.0,1.0,82,0.00,,,0.00,weatherlink.com 1.10,2013-07-15 09:08:00,
2013-07-15 05:23:00,77.3,71.0,30.22,WSW,237,0.0,3.0,82,0.00,,,0.00,weatherlink.com 1.10,2013-07-15 09:23:00,
2013-07-15 05:38:00,76.9,71.0,30.22,WSW,245,0.0,1.0,83,0.00,,,0.00,weatherlink.com 1.10,2013-07-15 09:38:00,
2013-07-15 05:53:00,76.5,71.0,30.22,WSW,245,0.0,0.0,84,0.00,,,0.00,weatherlink.com 1.10,2013-07-15 09:53:00,
2013-07-15 06:08:00,76.5,72.0,30.22,WSW,248,0.0,1.0,85,0.00,,,0.00,weatherlink.com 1.10,2013-07-15 10:08:00,
2013-07-15 06:23:00,76.7,72.0,30.22,SW,232,0.0,1.0,85,0.00,,,0.00,weatherlink.com 1.10,2013-07-15 10:23:00,
2013-07-15 06:38:00,77.2,72.0,30.23,WSW,249,0.0,1.0,84,0.00,,,0.00,weatherlink.com 1.10,2013-07-15 10:38:00,
2013-07-15 06:53:00,77.6,73.0,30.23,WSW,247,0.0,1.0,84,0.00,,,0.00,weatherlink.com 1.10,2013-07-15 10:53:00,
2013-07-15 07:08:00,77.9,72.0,30.23,WSW,238,0.0,1.0,83,0.00,,,0.00,weatherlink.com 1.10,2013-07-15 11:08:00,
2013-07-15 07:23:00,78.1,73.0,30.23,WSW,255,0.0,1.0,83,0.00,,,0.00,weatherlink.com 1.10,2013-07-15 11:23:00,
2013-07-15 07:38:00,78.5,73.0,30.23,SW,221,0.0,1.0,83,0.00,,,0.00,weatherlink.com 1.10,2013-07-15 11:38:00,
2013-07-15 07:53:00,80.1,74.0,30.23,SW,236,0.0,3.0,81,0.00,,,0.00,weatherlink.com 1.10,2013-07-15 11:53:00,
2013-07-15 08:09:00,82.8,75.0,30.23,ENE,68,0.0,2.0,77,0.00,,,0.00,weatherlink.com 1.10,2013-07-15 12:09:00,
2013-07-15 08:24:00,84.6,74.0,30.22,SE,134,0.0,5.0,70,0.00,,,0.00,weatherlink.com 1.10,2013-07-15 12:24:00,
2013-07-15 08:39:00,86.0,74.0,30.22,West,260,1.0,4.0,68,0.00,,,0.00,weatherlink.com 1.10,2013-07-15 12:39:00,
2013-07-15 08:54:00,86.3,74.0,30.22,SW,225,0.0,6.0,66,0.00,,,0.00,weatherlink.com 1.10,2013-07-15 12:54:00,
2013-07-15 09:09:00,87.3,74.0,30.22,East,89,3.0,5.0,64,0.00,,,0.00,weatherlink.com 1.10,2013-07-15 13:09:00,
2013-07-15 09:24:00,88.2,73.0,30.21,West,271,4.0,7.0,61,0.00,,,0.00,weatherlink.com 1.10,2013-07-15 13:24:00,
2013-07-15 09:39:00,88.2,74.0,30.21,WSW,253,1.0,5.0,63,0.00,,,0.00,weatherlink.com 1.10,2013-07-15 13:39:00,
2013-07-15 09:54:00,89.5,74.0,30.21,SSE,149,0.0,6.0,61,0.00,,,0.00,weatherlink.com 1.10,2013-07-15 13:54:00,
2013-07-15 10:09:00,89.5,74.0,30.20,WSW,258,3.0,5.0,60,0.00,,,0.00,weatherlink.com 1.10,2013-07-15 14:09:00,
2013-07-15 10:24:00,89.7,73.0,30.20,SW,236,1.0,6.0,59,0.00,,,0.00,weatherlink.com 1.10,2013-07-15 14:24:00,
2013-07-15 10:39:00,90.6,73.0,30.20,WNW,294,1.0,7.0,56,0.00,,,0.00,weatherlink.com 1.10,2013-07-15 14:39:00,
2013-07-15 10:54:00,90.7,73.0,30.20,SSW,210,2.0,6.0,57,0.00,,,0.00,weatherlink.com 1.10,2013-07-15 14:54:00,
2013-07-15 11:09:00,91.1,73.0,30.20,WSW,257,1.0,5.0,56,0.00,,,0.00,weatherlink.com 1.10,2013-07-15 15:09:00,
2013-07-15 11:54:00,92.4,72.0,30.19,SSE,152,2.0,4.0,52,0.00,,,0.00,weatherlink.com 1.10,2013-07-15 15:54:00,
2013-07-15 12:09:00,92.0,74.0,30.19,East,82,0.0,3.0,56,0.00,,,0.00,weatherlink.com 1.10,2013-07-15 16:09:00,
2013-07-15 12:24:00,93.4,73.0,30.18,ENE,72,2.0,4.0,52,0.00,,,0.00,weatherlink.com 1.10,2013-07-15 16:24:00,
2013-07-15 12:39:00,94.3,74.0,30.18,West,259,1.0,4.0,52,0.00,,,0.00,weatherlink.com 1.10,2013-07-15 16:39:00,
2013-07-15 13:09:00,94.4,74.0,30.17,NNW,337,4.0,4.0,52,0.00,,,0.00,weatherlink.com 1.10,2013-07-15 17:09:00,
2013-07-15 13:24:00,94.6,73.0,30.17,SSW,212,1.0,5.0,50,0.00,,,0.00,weatherlink.com 1.10,2013-07-15 17:24:00,
2013-07-15 13:39:00,94.8,72.0,30.16,West,266,2.0,7.0,48,0.00,,,0.00,weatherlink.com 1.10,2013-07-15 17:39:00,
2013-07-15 13:54:00,94.7,72.0,30.16,West,264,2.0,7.0,48,0.00,,,0.00,weatherlink.com 1.10,2013-07-15 17:54:00,
2013-07-15 14:10:00,94.7,72.0,30.16,NW,314,1.0,8.0,48,0.00,,,0.00,weatherlink.com 1.10,2013-07-15 18:10:00,
2013-07-15 14:25:00,95.3,73.0,30.15,West,280,3.0,7.0,49,0.00,,,0.00,weatherlink.com 1.10,2013-07-15 18:25:00,
2013-07-15 14:40:00,93.7,72.0,30.15,SW,225,2.0,6.0,50,0.00,,,0.00,weatherlink.com 1.10,2013-07-15 18:40:00,
2013-07-15 14:55:00,94.8,73.0,30.15,ESE,122,1.0,5.0,49,0.00,,,0.00,weatherlink.com 1.10,2013-07-15 18:55:00,
2013-07-15 15:10:00,96.0,73.0,30.15,WSW,238,2.0,8.0,48,0.00,,,0.00,weatherlink.com 1.10,2013-07-15 19:10:00,
2013-07-15 16:25:00,94.1,72.0,30.13,NNE,13,4.0,6.0,49,0.00,,,0.00,weatherlink.com 1.10,2013-07-15 20:25:00,
2013-07-15 16:40:00,94.5,72.0,30.12,West,281,1.0,9.0,48,0.00,,,0.00,weatherlink.com 1.10,2013-07-15 20:40:00,
2013-07-15 16:55:00,94.8,73.0,30.12,West,281,1.0,6.0,49,0.00,,,0.00,weatherlink.com 1.10,2013-07-15 20:55:00,
2013-07-15 17:10:00,95.5,73.0,30.12,North,6,3.0,6.0,48,0.00,,,0.00,weatherlink.com 1.10,2013-07-15 21:10:00,
2013-07-15 17:25:00,94.4,73.0,30.12,West,273,4.0,6.0,50,0.00,,,0.00,weatherlink.com 1.10,2013-07-15 21:25:00,
2013-07-15 17:40:00,94.9,73.0,30.12,West,274,1.0,6.0,50,0.00,,,0.00,weatherlink.com 1.10,2013-07-15 21:40:00,
2013-07-15 17:55:00,95.3,73.0,30.12,ENE,72,5.0,7.0,49,0.00,,,0.00,weatherlink.com 1.10,2013-07-15 21:55:00,
2013-07-15 18:10:00,95.3,73.0,30.11,East,89,1.0,5.0,48,0.00,,,0.00,weatherlink.com 1.10,2013-07-15 22:10:00,
2013-07-15 18:25:00,93.1,74.0,30.11,SE,129,1.0,8.0,54,0.00,,,0.00,weatherlink.com 1.10,2013-07-15 22:25:00,
2013-07-15 18:40:00,92.6,74.0,30.11,SE,141,1.0,5.0,54,0.00,,,0.00,weatherlink.com 1.10,2013-07-15 22:40:00,
2013-07-15 18:55:00,92.5,74.0,30.11,ESE,117,1.0,4.0,55,0.00,,,0.00,weatherlink.com 1.10,2013-07-15 22:55:00,
2013-07-15 19:10:00,91.2,73.0,30.12,East,84,1.0,3.0,56,0.00,,,0.00,weatherlink.com 1.10,2013-07-15 23:10:00,
2013-07-15 19:25:00,90.2,73.0,30.12,NE,50,0.0,2.0,58,0.00,,,0.00,weatherlink.com 1.10,2013-07-15 23:25:00,
2013-07-15 19:40:00,89.5,74.0,30.12,ESE,108,0.0,2.0,60,0.00,,,0.00,weatherlink.com 1.10,2013-07-15 23:40:00,
2013-07-15 19:55:00,88.9,74.0,30.12,NNW,347,0.0,2.0,61,0.00,,,0.00,weatherlink.com 1.10,2013-07-15 23:55:00,
2013-07-15 20:10:00,88.3,74.0,30.12,West,264,0.0,0.0,63,0.00,,,0.00,weatherlink.com 1.10,2013-07-16 00:10:00,
2013-07-15 20:25:00,87.6,73.0,30.12,NNE,22,0.0,1.0,63,0.00,,,0.00,weatherlink.com 1.10,2013-07-16 00:25:00,
2013-07-15 20:40:00,87.0,73.0,30.12,NNE,22,0.0,0.0,64,0.00,,,0.00,weatherlink.com 1.10,2013-07-16 00:40:00,
2013-07-15 20:55:00,86.2,73.0,30.12,NNE,22,0.0,0.0,65,0.00,,,0.00,weatherlink.com 1.10,2013-07-16 00:55:00,
2013-07-15 21:10:00,85.7,73.0,30.13,NNE,23,0.0,1.0,66,0.00,,,0.00,weatherlink.com 1.10,2013-07-16 01:10:00,
2013-07-15 21:25:00,85.3,73.0,30.13,NNE,23,0.0,1.0,67,0.00,,,0.00,weatherlink.com 1.10,2013-07-16 01:25:00,
2013-07-15 21:40:00,84.9,73.0,30.13,NNE,23,0.0,0.0,68,0.00,,,0.00,weatherlink.com 1.10,2013-07-16 01:40:00,
2013-07-15 21:55:00,84.5,73.0,30.13,NNE,23,0.0,1.0,69,0.00,,,0.00,weatherlink.com 1.10,2013-07-16 01:55:00,
2013-07-15 22:10:00,83.8,73.0,30.14,NNE,23,0.0,0.0,70,0.00,,,0.00,weatherlink.com 1.10,2013-07-16 02:10:00,
2013-07-15 22:25:00,83.5,73.0,30.14,NNE,23,0.0,0.0,71,0.00,,,0.00,weatherlink.com 1.10,2013-07-16 02:25:00,
2013-07-15 22:40:00,83.0,73.0,30.14,NNE,23,0.0,0.0,72,0.00,,,0.00,weatherlink.com 1.10,2013-07-16 02:40:00,
2013-07-15 22:55:00,82.5,73.0,30.14,NNE,22,0.0,0.0,73,0.00,,,0.00,weatherlink.com 1.10,2013-07-16 02:55:00,
2013-07-15 23:10:00,81.8,73.0,30.14,NNE,23,0.0,0.0,74,0.00,,,0.00,weatherlink.com 1.10,2013-07-16 03:10:00,
2013-07-15 23:25:00,81.0,73.0,30.14,NNE,22,0.0,0.0,76,0.00,,,0.00,weatherlink.com 1.10,2013-07-16 03:25:00,
2013-07-15 23:55:00,80.2,73.0,30.14,NNE,22,0.0,0.0,79,0.00,,,0.00,weatherlink.com 1.10,2013-07-16 03:55:00,